GW3570 Weather Reports


Display with metric or nautical units.
time (UTC)temp
F
wind
direction
speed
MPH
gust
MPH
rain 1hr
in
rain 24hr
in
rain mn
in
humidity
%
barometer
mb
20260901124933 72 155 0.0 0.0 0.00 0.00 0.00 87 1018.4
20260901124428 72 158 0.0 0.0 0.00 0.00 0.00 88 1018.5
20260901123923 71 172 0.0 0.0 0.00 0.00 0.00 88 1018.5
20260901123418 71 180 0.0 0.0 0.00 0.00 0.00 88 1018.4
20260901122916 72 245 0.0 0.0 0.00 0.00 0.00 87 1018.4
20260901122411 72 153 0.0 0.0 0.00 0.00 0.00 87 1018.3
20260901121910 72 144 0.0 0.0 0.00 0.00 0.00 87 1018.2
20260901121405 71 158 0.0 0.0 0.00 0.00 0.00 87 1018.0
20260901120901 71 156 0.0 0.0 0.00 0.00 0.00 88 1018.2
20260901120355 71 155 0.0 0.0 0.00 0.00 0.00 88 1018.1
20260901115850 71 268 0.0 0.0 0.00 0.00 0.00 88 1017.9
20260901115345 71 184 0.0 0.0 0.00 0.00 0.00 87 1017.9
20260901114843 71 170 0.0 0.0 0.00 0.00 0.00 87 1018.0
20260901114338 71 307 0.0 0.0 0.00 0.00 0.00 87 1017.9
20260901113836 71 280 0.0 0.0 0.00 0.00 0.00 87 1017.6
20260901113335 72 229 0.0 0.0 0.00 0.00 0.00 86 1017.6
20260901112831 72 213 0.0 0.0 0.00 0.00 0.00 86 1017.6
20260901112330 72 184 0.0 0.0 0.00 0.00 0.00 87 1017.6
20260901111825 72 211 0.0 0.0 0.00 0.00 0.00 87 1017.3
20260901111324 72 199 0.0 0.0 0.00 0.00 0.00 87 1017.6
20260901110823 72 239 0.0 0.0 0.00 0.00 0.00 87 1017.5
20260901110319 72 200 0.0 0.0 0.00 0.00 0.00 87 1017.4
20260901105815 72 305 0.0 0.0 0.00 0.00 0.00 87 1017.2
20260901105314 73 79 0.0 0.0 0.00 0.00 0.00 87 1017.2
20260901104811 73 348 0.0 0.0 0.00 0.00 0.00 87 1017.1
20260901104306 72 306 0.0 0.0 0.00 0.00 0.00 86 1016.9
20260901103801 73 148 0.0 0.0 0.00 0.00 0.00 88 1017.2
20260901103255 73 269 0.0 0.0 0.00 0.00 0.00 86 1017.2
20260901102750 73 52 0.0 0.0 0.00 0.00 0.00 85 1017.2
20260901102250 73 312 0.0 0.0 0.00 0.00 0.00 85 1017.0
20260901101746 73 116 0.0 0.0 0.00 0.00 0.00 87 1017.1
20260901101245 73 128 0.0 0.0 0.00 0.00 0.00 87 1017.4
20260901100745 73 273 0.0 0.0 0.00 0.00 0.00 85 1017.1
20260901100240 73 271 0.0 0.0 0.00 0.00 0.00 85 1017.1
20260901095738 74 230 0.0 0.0 0.00 0.00 0.00 86 1017.1
20260901095236 74 199 0.0 0.0 0.00 0.00 0.00 87 1017.1
20260901094731 73 235 0.0 0.0 0.00 0.00 0.00 85 1017.1
20260901094226 74 242 0.0 0.0 0.00 0.00 0.00 86 1017.1
20260901093721 73 278 0.0 0.0 0.00 0.00 0.00 85 1017.1
20260901093220 74 118 0.0 0.0 0.00 0.00 0.00 85 1016.9
20260901092716 74 277 0.0 0.0 0.00 0.00 0.00 83 1017.1
20260901092212 74 2 0.0 0.0 0.00 0.00 0.00 84 1017.0
20260901091707 73 286 0.0 0.0 0.00 0.00 0.00 83 1016.9
20260901091202 73 321 0.0 0.0 0.00 0.00 0.00 82 1017.1
20260901090656 75 185 0.0 0.0 0.00 0.00 0.00 83 1016.7
20260901090152 75 137 0.0 0.0 0.00 0.00 0.00 84 1017.0
20260901085648 74 32 0.0 0.0 0.00 0.00 0.00 83 1016.8
20260901085143 74 302 0.0 0.0 0.00 0.00 0.00 82 1017.0
20260901084639 74 28 0.0 0.0 0.00 0.00 0.00 82 1016.9
20260901084135 75 49 0.0 0.0 0.00 0.00 0.00 84 1017.0
20260901083630 75 236 0.0 0.0 0.00 0.00 0.00 84 1016.8
20260901083128 75 304 0.0 0.0 0.00 0.00 0.00 82 1017.1
20260901082623 75 305 0.0 0.0 0.00 0.00 0.00 81 1016.8
20260901082118 75 207 0.0 0.0 0.00 0.00 0.00 81 1016.8
20260901081614 75 235 0.0 0.0 0.00 0.00 0.00 81 1017.1
20260901081114 75 199 0.0 0.0 0.00 0.00 0.00 81 1016.8
20260901080608 76 150 0.0 0.0 0.00 0.00 0.00 82 1017.0
20260901080107 75 159 0.0 0.0 0.00 0.00 0.00 78 1016.7
20260901075603 76 286 0.0 0.0 0.00 0.00 0.00 79 1016.6
20260901075102 76 133 0.0 0.0 0.00 0.00 0.00 79 1016.7
20260901074601 76 184 0.0 0.0 0.00 0.00 0.00 76 1016.6
20260901074057 76 291 1.0 1.0 0.00 0.00 0.00 74 1016.6
20260901073553 76 358 1.0 1.0 0.00 0.00 0.00 74 1016.5
20260901073048 77 247 0.0 0.0 0.00 0.00 0.00 73 1016.2
20260901072543 77 184 0.0 0.0 0.00 0.00 0.00 72 1016.5
20260901072037 77 99 0.0 0.0 0.00 0.00 0.00 71 1016.7
20260901071532 77 298 1.0 1.0 0.00 0.00 0.00 71 1016.5
20260901071030 77 209 0.0 0.0 0.00 0.00 0.00 72 1016.5
20260901070526 78 219 0.0 0.0 0.00 0.00 0.00 71 1016.5
20260901070021 79 261 0.0 0.0 0.00 0.00 0.00 71 1016.4
20260901065516 80 159 0.0 0.0 0.00 0.00 0.00 66 1016.8
20260901065010 80 5 1.0 1.0 0.00 0.00 0.00 66 1016.7
20260901064507 80 336 1.0 1.0 0.00 0.00 0.00 68 1016.3
20260901064004 80 320 1.0 1.0 0.00 0.00 0.00 66 1016.5
20260901063500 79 0 0.0 1.0 0.00 0.00 0.00 67 1016.7
20260901062955 79 357 1.0 1.0 0.00 0.00 0.00 69 1017.0
20260901062451 80 44 0.0 1.0 0.00 0.00 0.00 66 1016.7
20260901061947 80 328 0.0 1.0 0.00 0.00 0.00 70 1016.7
20260901061443 79 42 1.0 1.0 0.00 0.00 0.00 70 1016.9
20260901060942 79 302 0.0 0.0 0.00 0.00 0.00 70 1016.7
20260901060437 78 313 1.0 1.0 0.00 0.00 0.00 72 1016.9
20260901055932 78 298 1.0 1.0 0.00 0.00 0.00 72 1016.9
20260901055429 78 342 1.0 1.0 0.00 0.00 0.00 74 1016.7
20260901054925 78 358 1.0 2.0 0.00 0.00 0.00 76 1016.6
20260901054422 77 2 0.0 0.0 0.00 0.00 0.00 78 1016.7
20260901053918 78 351 0.0 0.0 0.00 0.00 0.00 78 1016.6
20260901053413 77 324 0.0 0.0 0.00 0.00 0.00 79 1016.8
20260901052908 77 351 0.0 0.0 0.00 0.00 0.00 81 1016.5
20260901052403 77 305 0.0 0.0 0.00 0.00 0.00 81 1016.5
20260901051902 77 351 0.0 1.0 0.00 0.00 0.00 80 1016.3
20260901051357 76 306 0.0 0.0 0.00 0.00 0.00 78 1016.3
20260901050852 76 272 0.0 1.0 0.00 0.00 0.00 78 1016.2
20260901050348 77 18 0.0 0.0 0.00 0.00 0.00 81 1016.2
20260901045843 77 347 0.0 0.0 0.00 0.00 0.00 80 1016.2
20260901045342 77 356 0.0 0.0 0.00 0.00 0.00 80 1016.2
20260901044838 76 321 0.0 0.0 0.00 0.00 0.00 80 1016.2
20260901044334 76 289 1.0 1.0 0.00 0.00 0.00 81 1016.2
20260901043829 77 310 0.0 0.0 0.00 0.00 0.00 82 1016.3
20260901043325 76 315 1.0 1.0 0.00 0.00 0.00 82 1016.3
20260901042824 77 8 0.0 0.0 0.00 0.00 0.00 84 1016.1
20260901042319 77 16 0.0 0.0 0.00 0.00 0.00 84 1016.1
20260901041815 77 345 0.0 0.0 0.00 0.00 0.00 83 1016.2
20260901041310 77 25 0.0 0.0 0.00 0.00 0.00 83 1016.0
20260901040804 77 353 1.0 1.0 0.00 0.00 0.00 82 1016.1
20260901040304 77 276 1.0 1.0 0.00 0.00 0.00 81 1016.1
20260901035803 77 1 0.0 0.0 0.00 0.00 0.00 82 1015.9
20260901035305 77 314 0.0 0.0 0.00 0.00 0.00 81 1015.9
20260901034801 78 307 0.0 0.0 0.00 0.00 0.00 80 1016.0
20260901034256 78 6 0.0 0.0 0.00 0.00 0.00 81 1016.2
20260901033755 78 0 0.0 0.0 0.00 0.00 0.00 80 1016.2
20260901033255 78 328 0.0 0.0 0.00 0.00 0.00 80 1016.2
20260901032753 78 314 0.0 0.0 0.00 0.00 0.00 79 1016.0
20260901032248 78 353 0.0 0.0 0.00 0.00 0.00 80 1016.4
20260901031743 78 293 0.0 0.0 0.00 0.00 0.00 79 1016.0
20260901031239 78 347 0.0 0.0 0.00 0.00 0.00 79 1016.0
20260901030733 79 283 0.0 0.0 0.00 0.00 0.00 77 1016.1
20260901030228 79 327 0.0 0.0 0.00 0.00 0.00 78 1015.9
20260901025722 79 302 0.0 0.0 0.00 0.00 0.00 77 1016.1
20260901025217 80 7 0.0 0.0 0.00 0.00 0.00 76 1015.9
20260901024712 80 326 0.0 0.0 0.00 0.00 0.00 75 1016.0
20260901024211 80 2 0.0 0.0 0.00 0.00 0.00 74 1015.9
20260901023709 81 341 0.0 0.0 0.00 0.00 0.00 73 1015.8
20260901023204 81 356 0.0 0.0 0.00 0.00 0.00 72 1015.9
20260901022700 80 308 0.0 0.0 0.00 0.00 0.00 71 1015.8
20260901022155 81 292 0.0 0.0 0.00 0.00 0.00 69 1015.7
20260901021650 82 302 0.0 0.0 0.00 0.00 0.00 69 1015.7
20260901021145 81 8 0.0 0.0 0.00 0.00 0.00 69 1015.6
20260901020641 82 294 0.0 0.0 0.00 0.00 0.00 65 1015.3
20260901020137 82 310 0.0 0.0 0.00 0.00 0.00 65 1015.3
20260901015632 83 355 0.0 0.0 0.00 0.00 0.00 66 1015.1
20260901015131 83 7 0.0 0.0 0.00 0.00 0.00 64 1015.2
20260901014626 83 276 0.0 0.0 0.00 0.00 0.00 60 1015.5
20260901014122 84 188 0.0 0.0 0.00 0.00 0.00 59 1015.2
20260901013618 84 159 0.0 0.0 0.00 0.00 0.00 61 1015.2
20260901013114 85 175 0.0 0.0 0.00 0.00 0.00 58 1015.1
20260901012613 85 210 0.0 0.0 0.00 0.00 0.00 56 1015.0
20260901012108 85 169 0.0 0.0 0.00 0.00 0.00 56 1014.7
20260901011605 85 226 0.0 0.0 0.00 0.00 0.00 52 1014.9
20260901011103 86 236 0.0 0.0 0.00 0.00 0.00 52 1014.9
20260901010558 86 230 0.0 0.0 0.00 0.00 0.00 51 1014.7
20260901010057 88 208 0.0 0.0 0.00 0.00 0.00 49 1014.8
20260901005552 88 10 0.0 0.0 0.00 0.00 0.00 48 1014.6
20260901005047 89 319 0.0 0.0 0.00 0.00 0.00 48 1014.6
20260901004546 89 1 0.0 0.0 0.00 0.00 0.00 48 1014.7
20260901004041 91 333 0.0 0.0 0.00 0.00 0.00 45 1014.5
20260901003536 91 31 0.0 0.0 0.00 0.00 0.00 44 1014.6
20260901003034 91 30 1.0 1.0 0.00 0.00 0.00 44 1014.6
20260901002534 92 352 1.0 1.0 0.00 0.00 0.00 45 1014.6
20260901002029 93 213 0.0 1.0 0.00 0.00 0.00 44 1014.4
20260901001524 93 336 1.0 1.0 0.00 0.00 0.00 43 1014.5
20260901001019 95 195 0.0 0.0 0.00 0.00 0.00 43 1014.3
20260901000514 95 154 1.0 2.0 0.00 0.00 0.00 40 1014.6
20260901000010 96 106 1.0 1.0 0.00 0.00 0.00 39 1014.5
20260831235503 97 122 1.0 1.0 0.00 0.00 0.00 38 1014.4
20260831234959 97 115 3.0 3.0 0.00 0.00 0.00 37 1014.7
20260831234453 98 147 2.0 2.0 0.00 0.00 0.00 34 1014.4
20260831233948 98 153 3.0 3.0 0.00 0.00 0.00 34 1014.5
20260831233443 98 144 1.0 1.0 0.00 0.00 0.00 34 1014.5
20260831232939 98 139 1.0 2.0 0.00 0.00 0.00 35 1014.3
20260831232435 98 139 3.0 3.0 0.00 0.00 0.00 34 1014.5
20260831231930 99 139 3.0 3.0 0.00 0.00 0.00 34 1014.4
20260831231426 99 153 2.0 2.0 0.00 0.00 0.00 31 1014.3
20260831230922 99 141 3.0 3.0 0.00 0.00 0.00 31 1014.5
20260831230417 99 160 3.0 3.0 0.00 0.00 0.00 33 1014.4
20260831225911 100 162 2.0 3.0 0.00 0.00 0.00 30 1014.4
20260831225407 100 137 2.0 2.0 0.00 0.00 0.00 31 1014.3
20260831224901 100 144 2.0 2.0 0.00 0.00 0.00 31 1014.2
20260831224401 100 144 2.0 2.0 0.00 0.00 0.00 35 1014.3
20260831223856 100 161 3.0 3.0 0.00 0.00 0.00 32 1014.6
20260831223352 101 115 5.0 7.0 0.00 0.00 0.00 32 1014.3
20260831222849 101 104 1.0 2.0 0.00 0.00 0.00 30 1014.4
20260831222344 101 175 3.0 3.0 0.00 0.00 0.00 29 1014.6
20260831221839 101 143 6.0 7.0 0.00 0.00 0.00 32 1014.5
20260831221335 101 110 4.0 5.0 0.00 0.00 0.00 31 1014.5
20260831220830 102 130 5.0 7.0 0.00 0.00 0.00 33 1014.3
20260831220325 102 140 5.0 6.0 0.00 0.00 0.00 30 1014.3
20260831215820 102 119 6.0 7.0 0.00 0.00 0.00 31 1014.6
20260831215316 102 113 3.0 3.0 0.00 0.00 0.00 29 1014.5
20260831214812 102 126 5.0 6.0 0.00 0.00 0.00 31 1014.4
20260831214310 103 146 5.0 7.0 0.00 0.00 0.00 29 1014.2
20260831213805 103 103 4.0 6.0 0.00 0.00 0.00 30 1014.3
20260831213301 103 170 5.0 6.0 0.00 0.00 0.00 29 1014.3
20260831212756 103 178 3.0 3.0 0.00 0.00 0.00 31 1014.4
20260831212253 104 176 4.0 5.0 0.00 0.00 0.00 31 1014.4
20260831211751 104 161 3.0 3.0 0.00 0.00 0.00 27 1014.4
20260831211246 103 169 4.0 5.0 0.00 0.00 0.00 29 1014.4
20260831210740 104 204 4.0 5.0 0.00 0.00 0.00 29 1014.4
20260831210236 103 149 3.0 3.0 0.00 0.00 0.00 30 1014.6
20260831205735 103 114 3.0 3.0 0.00 0.00 0.00 28 1014.6
20260831205233 103 152 4.0 5.0 0.00 0.00 0.00 30 1014.8
20260831204732 103 174 6.0 8.0 0.00 0.00 0.00 28 1014.5
20260831204231 102 133 4.0 5.0 0.00 0.00 0.00 29 1014.8
20260831203731 103 104 5.0 7.0 0.00 0.00 0.00 32 1014.7
20260831203226 103 107 7.0 8.0 0.00 0.00 0.00 31 1014.8
20260831202724 103 171 2.0 2.0 0.00 0.00 0.00 31 1014.7
20260831202219 103 168 3.0 3.0 0.00 0.00 0.00 31 1014.8
20260831201718 102 125 0.0 1.0 0.00 0.00 0.00 32 1014.9
20260831201213 103 208 1.0 1.0 0.00 0.00 0.00 30 1014.9
20260831200709 103 142 1.0 1.0 0.00 0.00 0.00 29 1015.2
20260831200208 103 175 3.0 3.0 0.00 0.00 0.00 31 1015.0
20260831195704 104 201 2.0 2.0 0.00 0.00 0.00 33 1015.0
20260831195200 102 132 1.0 1.0 0.00 0.00 0.00 33 1015.0
20260831194654 102 190 1.0 2.0 0.00 0.00 0.00 37 1015.1
20260831194149 104 206 3.0 3.0 0.00 0.00 0.00 31 1015.3
20260831193644 104 204 1.0 1.0 0.00 0.00 0.00 31 1015.3
20260831193139 103 110 2.0 2.0 0.00 0.00 0.00 32 1015.2
20260831192634 103 143 2.0 3.0 0.00 0.00 0.00 32 1015.2
20260831192129 102 124 3.0 3.0 0.00 0.00 0.00 34 1015.3
20260831191625 103 184 4.0 5.0 0.00 0.00 0.00 36 1015.6
20260831191121 103 144 1.0 1.0 0.00 0.00 0.00 33 1015.6
20260831190616 103 255 2.0 2.0 0.00 0.00 0.00 33 1015.7
20260831190115 102 165 4.0 5.0 0.00 0.00 0.00 32 1015.7
20260831185611 102 176 5.0 6.0 0.00 0.00 0.00 37 1015.9
20260831185106 102 159 3.0 3.0 0.00 0.00 0.00 34 1015.9
20260831184605 101 223 3.0 3.0 0.00 0.00 0.00 36 1016.0
20260831184101 101 193 4.0 5.0 0.00 0.00 0.00 36 1015.9
20260831183600 101 158 2.0 2.0 0.00 0.00 0.00 34 1016.0
20260831183054 100 192 3.0 5.0 0.00 0.00 0.00 34 1016.2
20260831182549 100 203 5.0 6.0 0.00 0.00 0.00 35 1016.1
20260831182044 100 179 3.0 3.0 0.00 0.00 0.00 35 1016.1
20260831181539 100 200 4.0 5.0 0.00 0.00 0.00 35 1016.4
20260831181038 101 160 3.0 3.0 0.00 0.00 0.00 36 1016.4
20260831180534 101 151 4.0 5.0 0.00 0.00 0.00 36 1016.4
20260831180028 100 142 3.0 3.0 0.00 0.00 0.00 35 1016.4
20260831175524 99 172 4.0 5.0 0.00 0.00 0.00 37 1016.6
20260831175021 99 184 5.0 5.0 0.00 0.00 0.00 38 1016.7
20260831174520 99 216 3.0 5.0 0.00 0.00 0.00 39 1016.7
20260831174015 98 203 4.0 5.0 0.00 0.00 0.00 38 1016.6
20260831173513 98 251 5.0 6.0 0.00 0.00 0.00 36 1016.8
20260831173010 98 234 6.0 6.0 0.00 0.00 0.00 38 1016.8
20260831172505 98 191 4.0 5.0 0.00 0.00 0.00 38 1016.9
20260831171959 97 189 3.0 3.0 0.00 0.00 0.00 38 1017.2
20260831171454 98 203 6.0 7.0 0.00 0.00 0.00 41 1017.3
20260831170951 98 190 5.0 6.0 0.00 0.00 0.00 39 1017.3
20260831170447 98 156 7.0 8.0 0.00 0.00 0.00 38 1017.3
20260831165944 97 174 3.0 3.0 0.00 0.00 0.00 39 1017.2
20260831165439 96 152 6.0 6.0 0.00 0.00 0.00 40 1017.3
20260831164936 96 164 4.0 5.0 0.00 0.00 0.00 42 1017.2
20260831164432 96 194 5.0 6.0 0.00 0.00 0.00 42 1017.4
20260831163927 97 199 3.0 3.0 0.00 0.00 0.00 40 1017.5
20260831163422 96 184 4.0 5.0 0.00 0.00 0.00 43 1017.6
20260831162920 96 164 5.0 6.0 0.00 0.00 0.00 43 1017.6
20260831162416 95 204 4.0 5.0 0.00 0.00 0.00 44 1017.6
20260831161914 95 176 2.0 2.0 0.00 0.00 0.00 43 1017.3
20260831161411 95 151 5.0 7.0 0.00 0.00 0.00 44 1017.4
20260831160906 94 184 6.0 7.0 0.00 0.00 0.00 46 1017.2
20260831160401 93 222 4.0 5.0 0.00 0.00 0.00 46 1017.3
20260831155856 93 201 5.0 8.0 0.00 0.00 0.00 46 1017.7
20260831155351 93 159 3.0 3.0 0.00 0.00 0.00 47 1017.6
20260831154846 93 203 4.0 5.0 0.00 0.00 0.00 47 1017.8
20260831154343 93 139 7.0 8.0 0.00 0.00 0.00 47 1017.8
20260831153841 92 158 3.0 3.0 0.00 0.00 0.00 49 1017.6
20260831153337 92 191 4.0 5.0 0.00 0.00 0.00 47 1017.7
20260831152833 91 182 3.0 3.0 0.00 0.00 0.00 50 1017.7
20260831152329 91 206 4.0 5.0 0.00 0.00 0.00 49 1017.7
20260831151824 91 231 3.0 5.0 0.00 0.00 0.00 49 1017.8
20260831151322 90 193 3.0 5.0 0.00 0.00 0.00 52 1017.8
20260831150818 89 162 3.0 5.0 0.00 0.00 0.00 52 1017.7
20260831150314 89 190 4.0 5.0 0.00 0.00 0.00 51 1017.6
20260831145812 90 194 5.0 7.0 0.00 0.00 0.00 51 1017.6
20260831145309 89 155 4.0 5.0 0.00 0.00 0.00 54 1017.6
20260831144804 89 142 2.0 3.0 0.00 0.00 0.00 53 1017.5
20260831144300 88 152 2.0 2.0 0.00 0.00 0.00 52 1017.6
20260831143800 88 187 5.0 6.0 0.00 0.00 0.00 53 1017.7
20260831143255 88 158 3.0 3.0 0.00 0.00 0.00 53 1017.6
20260831142750 87 186 3.0 3.0 0.00 0.00 0.00 56 1017.8
20260831142246 86 162 4.0 5.0 0.00 0.00 0.00 55 1017.5
20260831141745 86 150 3.0 3.0 0.00 0.00 0.00 57 1017.6
20260831141240 85 167 2.0 2.0 0.00 0.00 0.00 58 1017.6
20260831140735 85 160 1.0 2.0 0.00 0.00 0.00 57 1017.6
20260831140229 85 171 2.0 2.0 0.00 0.00 0.00 57 1017.7
20260831135727 84 145 3.0 3.0 0.00 0.00 0.00 57 1017.5
20260831135223 84 153 2.0 2.0 0.00 0.00 0.00 58 1017.6
20260831134718 84 247 0.0 1.0 0.00 0.00 0.00 58 1017.5
20260831134214 84 147 0.0 0.0 0.00 0.00 0.00 58 1017.7
20260831133713 82 162 0.0 0.0 0.00 0.00 0.00 60 1017.4
20260831133208 81 168 0.0 0.0 0.00 0.00 0.00 62 1017.5
20260831132703 79 148 0.0 0.0 0.00 0.00 0.00 66 1017.5
20260831132203 78 156 0.0 0.0 0.00 0.00 0.00 67 1017.4
20260831131657 78 137 0.0 0.0 0.00 0.00 0.00 67 1017.6
20260831131154 78 111 0.0 1.0 0.00 0.00 0.00 68 1017.5
20260831130649 77 120 1.0 2.0 0.00 0.00 0.00 70 1017.4
20260831130144 76 132 0.0 0.0 0.00 0.00 0.00 71 1017.5
20260831125642 76 128 0.0 0.0 0.00 0.00 0.00 71 1017.4
20260831125138 75 76 1.0 1.0 0.00 0.00 0.00 72 1017.0